Content
SEND FEEDBACK

Daily
Averages
Monthly
Summary
United States of America

BEDFORD PARK, ILLINOIS


Home > North America > United States > Illinois
Elevation: 623 feet     Latitude: 41 46N     Longitude: 087 45W

WEATHER
 
SELECT A DAY
Number of Records: 193,905;   Date Range: 1/1/95 - 12/19/14
 
SHARE

PRINT THIS DATA

[ ← Previous Day ]
WEATHER ALMANAC - JANUARY 29, 2013
[ Next Day → ]
[ °C ]   °F
Weather ElementAverageHighLow
Temperature56.5 °F61 °F (11:51 am)41 °F (12:32 am)
Dewpoint53.8 °F57.2 °F (2:29 pm)39.2 °F (12:32 am)
Humidity90.9 %100 % (2:16 am)82 % (2:21 pm)
Barometer29.56 in29.80 in (12:32 am)29.39 in (11:49 pm)
Wind Speed10.9 mph23 mph (7:51 am)
Wind Gust32.2 mph (7:51 am)
Weather ElementAverage
Visibility4.2 mi
Wind DirectionSSW (193.5 °)

Weather ElementTotal
Precipitation1.97 in
Heating Degree Days14 (Base 65)
Growing Degree Days1 (Base 50)
Averaged from 46 records on January 29, 2013
WEATHER CONDITIONS BREAKOUT
WIND DIRECTION BREAKOUT
WEATHER BY HOUR - JANUARY 29, 2013
[ °C ]   °F
Local TimeTemperatureDewpointHumidityBarometerVisibilityWind DirectionWind SpeedGust SpeedPrecipitationEventsConditions
12:32 AM41.0 °F39.2 °F93 %29.80 in0.5 miSE (130°)5.8 mphFogFog
12:51 AM45.0 °F43.0 °F93 %29.80 in0.2 miSE (130°)5.8 mphFogFog
1:51 AM51.1 °F50.0 °F96 %29.75 in0.5 miSouth (170°)9.2 mphFogFog
2:16 AM53.6 °F53.6 °F100 %29.74 in0.8 miSouth (180°)12.7 mph0.00 inRainLight Rain
2:26 AM53.6 °F53.6 °F100 %29.73 in1.8 miSouth (180°)13.8 mph23.0 mph0.02 inRainLight Rain
2:35 AM55.4 °F53.6 °F94 %29.73 in3.0 miSouth (190°)12.7 mph0.03 inRainLight Rain
2:51 AM55.9 °F54.0 °F93 %29.73 in4.0 miSouth (190°)15.0 mph20.7 mph0.04 inOvercast
3:29 AM57.2 °F55.4 °F94 %29.70 in6.0 miSSW (200°)15.0 mph25.3 mph0.00 inOvercast
3:51 AM57.9 °F55.9 °F93 %29.70 in7.0 miSSW (210°)19.6 mph27.6 mph0.00 inOvercast
4:51 AM59.0 °F55.9 °F90 %29.70 in8.0 miSSW (200°)17.3 mph27.6 mphOvercast
5:51 AM57.9 °F55.0 °F90 %29.68 in8.0 miSSW (200°)18.4 mph26.5 mphOvercast
6:51 AM59.0 °F55.4 °F88 %29.66 in8.0 miSSW (200°)17.3 mph25.3 mphOvercast
7:51 AM60.1 °F55.0 °F83 %29.68 in8.0 miSSW (200°)23.0 mph32.2 mphOvercast
8:51 AM59.0 °F55.0 °F87 %29.68 in8.0 miSSW (210°)17.3 mph25.3 mphOvercast
9:51 AM60.1 °F55.9 °F86 %29.68 in8.0 miSSW (200°)16.1 mph25.3 mphOvercast
10:19 AM59.0 °F55.4 °F88 %29.66 in7.0 miSSW (200°)13.8 mphOvercast
10:51 AM60.1 °F55.9 °F86 %29.66 in6.0 miSSW (210°)15.0 mph23.0 mphOvercast
11:51 AM61.0 °F57.0 °F87 %29.63 in7.0 miSSW (210°)13.8 mphOvercast
12:51 PM61.0 °F55.9 °F83 %29.60 in6.0 miSSW (200°)19.6 mph25.3 mphHaze
1:51 PM61.0 °F57.0 °F87 %29.54 in7.0 miSouth (190°)13.8 mph26.5 mphOvercast
2:21 PM60.8 °F55.4 °F82 %29.55 in2.0 miSSW (210°)16.1 mph23.0 mph0.03 inRainLight Rain
2:29 PM60.8 °F57.2 °F88 %29.54 in3.0 miSSW (200°)13.8 mph23.0 mph0.05 inRainLight Rain
2:51 PM61.0 °F57.0 °F87 %29.52 in6.0 miSSW (200°)16.1 mph21.9 mph0.05 inRainLight Rain
3:51 PM61.0 °F57.0 °F87 %29.51 in5.0 miSouth (190°)16.1 mph25.3 mph0.03 inOvercast
4:51 PM61.0 °F55.9 °F83 %29.47 in5.0 miSouth (180°)18.4 mph26.5 mph0.00 inRain-ThunderstormLight Thunderstorms and Rain
5:12 PM60.8 °F55.4 °F82 %29.47 in5.0 miSouth (190°)16.1 mph24.2 mph0.00 inHaze
5:19 PM60.8 °F55.4 °F82 %29.47 in5.0 miSSW (210°)11.5 mph23.0 mph0.00 inThunderstormOvercast
5:30 PM60.8 °F55.4 °F82 %29.48 in1.0 miSW (220°)8.1 mph0.17 inRain-ThunderstormHeavy Thunderstorms and Rain
5:38 PM59.0 °F57.2 °F94 %29.49 in2.0 miSSW (210°)6.9 mph0.28 inRain-ThunderstormHeavy Thunderstorms and Rain
5:51 PM57.9 °F55.9 °F93 %29.47 in2.5 miNW (320°)11.5 mph0.32 inRain-ThunderstormLight Thunderstorms and Rain
5:58 PM57.2 °F53.6 °F88 %29.47 in6.0 miNW (320°)10.4 mph0.00 inRainLight Rain
6:11 PM55.4 °F53.6 °F94 %29.47 in2.0 miWNW (300°)6.9 mph0.04 inRainRain
6:29 PM55.4 °F53.6 °F94 %29.49 in2.0 miWest (280°)8.1 mph0.12 inRainRain
6:51 PM55.0 °F53.1 °F93 %29.47 in2.5 miNW (310°)5.8 mph0.19 inRainRain
7:51 PM55.0 °F53.1 °F93 %29.48 in3.0 miSSW (200°)5.8 mph0.11 inRainLight Rain
8:06 PM53.6 °F53.6 °F100 %29.47 in4.0 miCalm0.00 inRainLight Rain
8:51 PM54.0 °F52.0 °F93 %29.45 in3.0 miSSW (210°)4.6 mph0.02 inRainLight Rain
9:16 PM53.6 °F53.6 °F100 %29.45 in2.5 miSouth (190°)8.1 mph0.02 inRainLight Rain
9:42 PM53.6 °F51.8 °F94 %29.43 in2.5 miCalm0.05 inRainLight Rain
9:49 PM53.6 °F51.8 °F94 %29.43 in2.0 miSW (230°)3.5 mph0.05 inRainLight Rain
9:51 PM54.0 °F52.0 °F93 %29.43 in2.0 miSW (220°)4.6 mph0.05 inRainLight Rain
10:06 PM53.6 °F51.8 °F94 %29.43 in4.0 miSW (230°)3.5 mph0.02 inRainLight Rain
10:51 PM53.1 °F52.0 °F96 %29.42 in3.0 miWSW (250°)4.6 mph0.09 inRainLight Rain
11:00 PM53.6 °F51.8 °F94 %29.42 in4.0 miSW (230°)5.8 mph0.01 inRainLight Rain
11:49 PM53.6 °F51.8 °F94 %29.39 in4.0 miCalm0.09 inRainLight Rain
11:51 PM53.1 °F52.0 °F96 %29.39 in4.0 miCalm0.09 inRainLight Rain
Hourly data recorded from KMDW, located miles away from Bedford Park, Illinois







STORIES FROM OUR PARTNERS